OK1FPA-15 Weather Reports


time (UTC)temp
C
wind
direction
speed
KPH
gust
KPH
rain 1hr
cm
rain 24hr
cm
rain mn
cm
humidity
%
barometer
mb
20260507192745 9 0.0 0.0 0.00 0.00 0.00 89 1017.0
20260507191746 9 0.0 0.0 0.00 0.00 0.00 89 1016.9
20260507190745 9 0.0 0.0 0.00 0.00 0.00 89 1016.7
20260507185745 9 0.0 0.0 0.00 0.00 0.00 91 1016.6
20260507184745 10 0.0 0.0 0.00 0.00 0.00 88 1016.3
20260507183745 10 0.0 0.0 0.00 0.00 0.00 90 1016.2
20260507182745 10 0.0 0.0 0.00 0.00 0.00 90 1016.1
20260507181745 10 0.0 0.0 0.00 0.00 0.00 90 1015.8
20260507180745 10 0.0 0.0 0.00 0.00 0.00 90 1015.7
20260507175745 10 0.0 0.0 0.00 0.00 0.00 91 1015.5
20260507174745 10 0.0 0.0 0.00 0.00 0.00 91 1015.3
20260507173745 10 0.0 0.0 0.00 0.00 0.00 92 1015.3
20260507172745 10 0.0 0.0 0.00 0.00 0.00 90 1015.4
20260507171745 10 0.0 0.0 0.00 0.00 0.00 90 1015.5
20260507170745 10 0.0 0.0 0.00 0.00 0.00 89 1015.5
20260507165745 10 0.0 0.0 0.00 0.00 0.00 87 1015.4
20260507164745 10 0.0 0.0 0.00 0.00 0.00 87 1015.3
20260507163745 10 0.0 0.0 0.00 0.00 0.00 90 1015.3
20260507162745 10 0.0 0.0 0.00 0.00 0.00 89 1015.1
20260507161745 10 0.0 0.0 0.00 0.00 0.00 89 1014.9
20260507160745 11 0.0 0.0 0.00 0.00 0.00 88 1014.8
20260507155746 11 0.0 0.0 0.00 0.00 0.00 87 1014.7
20260507154745 11 0.0 0.0 0.00 0.00 0.00 89 1014.6
20260507153745 11 0.0 0.0 0.00 0.00 0.00 91 1014.6
20260507152745 11 0.0 0.0 0.00 0.00 0.00 91 1014.5
20260507151746 11 0.0 0.0 0.00 0.00 0.00 90 1014.4
20260507150745 11 0.0 0.0 0.00 0.00 0.00 90 1014.2
20260507145746 11 0.0 0.0 0.00 0.00 0.00 89 1014.2
20260507144750 12 0.0 0.0 0.00 0.00 0.00 88 1014.0
20260507143745 12 0.0 0.0 0.00 0.00 0.00 87 1014.0
20260507142745 12 0.0 0.0 0.00 0.00 0.00 87 1013.9
20260507141745 12 0.0 0.0 0.00 0.00 0.00 86 1013.8
20260507140745 12 0.0 0.0 0.00 0.00 0.00 88 1013.7
20260507135745 12 0.0 0.0 0.00 0.00 0.00 90 1013.8
20260507134745 11 0.0 0.0 0.00 0.00 0.00 87 1013.7
20260507133745 12 0.0 0.0 0.00 0.00 0.00 89 1013.5
20260507132746 12 0.0 0.0 0.00 0.00 0.00 88 1013.5
20260507131745 12 0.0 0.0 0.00 0.00 0.00 87 1013.5
20260507130745 12 0.0 0.0 0.00 0.00 0.00 89 1013.3
20260507125745 12 0.0 0.0 0.00 0.00 0.00 88 1013.3
20260507124747 12 0.0 0.0 0.00 0.00 0.00 86 1013.3
20260507123745 12 0.0 0.0 0.00 0.00 0.00 86 1013.2
20260507122745 12 0.0 0.0 0.00 0.00 0.00 84 1013.1
20260507121745 13 0.0 0.0 0.00 0.00 0.00 83 1012.8
20260507120745 13 0.0 0.0 0.00 0.00 0.00 84 1012.7
20260507115745 12 0.0 0.0 0.00 0.00 0.00 84 1012.7
20260507114749 12 0.0 0.0 0.00 0.00 0.00 87 1012.7
20260507113744 12 0.0 0.0 0.00 0.00 0.00 87 1012.5
20260507112744 12 0.0 0.0 0.00 0.00 0.00 86 1012.5
20260507111744 12 0.0 0.0 0.00 0.00 0.00 86 1012.4
20260507110744 12 0.0 0.0 0.00 0.00 0.00 87 1012.2
20260507105744 12 0.0 0.0 0.00 0.00 0.00 87 1012.2
20260507104744 13 0.0 0.0 0.00 0.00 0.00 85 1012.1
20260507103744 13 0.0 0.0 0.00 0.00 0.00 84 1012.0
20260507102744 13 0.0 0.0 0.00 0.00 0.00 83 1012.0
20260507101744 13 0.0 0.0 0.00 0.00 0.00 87 1012.0
20260507100745 13 0.0 0.0 0.00 0.00 0.00 86 1011.9
20260507095744 13 0.0 0.0 0.00 0.00 0.00 83 1011.9
20260507094744 14 0.0 0.0 0.00 0.00 0.00 83 1011.7
20260507093744 13 0.0 0.0 0.00 0.00 0.00 82 1011.6
20260507092744 13 0.0 0.0 0.00 0.00 0.00 81 1011.6
20260507091744 13 0.0 0.0 0.00 0.00 0.00 81 1011.5
20260507090744 13 0.0 0.0 0.00 0.00 0.00 84 1011.4
20260507085745 13 0.0 0.0 0.00 0.00 0.00 83 1011.5
20260507084744 13 0.0 0.0 0.00 0.00 0.00 86 1011.4
20260507083744 12 0.0 0.0 0.00 0.00 0.00 87 1011.3
20260507082744 12 0.0 0.0 0.00 0.00 0.00 85 1011.2
20260507081744 12 0.0 0.0 0.00 0.00 0.00 86 1011.1
20260507080744 12 0.0 0.0 0.00 0.00 0.00 87 1011.0
20260507075744 12 0.0 0.0 0.00 0.00 0.00 89 1010.8
20260507074744 12 0.0 0.0 0.00 0.00 0.00 89 1010.8
20260507073744 12 0.0 0.0 0.00 0.00 0.00 90 1010.6
20260507072745 11 0.0 0.0 0.00 0.00 0.00 90 1010.6
20260507071744 11 0.0 0.0 0.00 0.00 0.00 91 1010.6
20260507070744 11 0.0 0.0 0.00 0.00 0.00 91 1010.5
20260507065744 11 0.0 0.0 0.00 0.00 0.00 91 1010.5
20260507064744 11 0.0 0.0 0.00 0.00 0.00 91 1010.4
20260507063744 11 0.0 0.0 0.00 0.00 0.00 92 1010.3
20260507062744 11 0.0 0.0 0.00 0.00 0.00 92 1010.2
20260507061744 11 0.0 0.0 0.00 0.00 0.00 91 1010.1
20260507060744 11 0.0 0.0 0.00 0.00 0.00 94 1009.9
20260507055744 11 0.0 0.0 0.00 0.00 0.00 95 1009.9
20260507054744 11 0.0 0.0 0.00 0.00 0.00 94 1009.8
20260507053744 11 0.0 0.0 0.00 0.00 0.00 92 1009.8
20260507052744 11 0.0 0.0 0.00 0.00 0.00 91 1009.6
20260507051744 11 0.0 0.0 0.00 0.00 0.00 90 1009.5
20260507050744 11 0.0 0.0 0.00 0.00 0.00 92 1009.4
20260507045744 11 0.0 0.0 0.00 0.00 0.00 91 1009.3
20260507044744 11 0.0 0.0 0.00 0.00 0.00 91 1009.3
20260507043744 11 0.0 0.0 0.00 0.00 0.00 92 1009.2
20260507042744 11 0.0 0.0 0.00 0.00 0.00 92 1009.2
20260507041744 11 0.0 0.0 0.00 0.00 0.00 93 1009.1
20260507040744 11 0.0 0.0 0.00 0.00 0.00 93 1009.1
20260507034744 11 0.0 0.0 0.00 0.00 0.00 93 1008.9
20260507033744 11 0.0 0.0 0.00 0.00 0.00 94 1008.9
20260507032744 11 0.0 0.0 0.00 0.00 0.00 95 1009.0
20260507031744 11 0.0 0.0 0.00 0.00 0.00 95 1008.9
20260507030744 11 0.0 0.0 0.00 0.00 0.00 96 1008.9
20260507025744 11 0.0 0.0 0.00 0.00 0.00 95 1008.8
20260507024744 11 0.0 0.0 0.00 0.00 0.00 96 1008.8
20260507023744 11 0.0 0.0 0.00 0.00 0.00 95 1008.6
20260507022744 11 0.0 0.0 0.00 0.00 0.00 94 1008.6
20260507021744 11 0.0 0.0 0.00 0.00 0.00 94 1008.5
20260507020744 11 0.0 0.0 0.00 0.00 0.00 93 1008.3
20260507015744 11 0.0 0.0 0.00 0.00 0.00 92 1008.3
20260507014744 11 0.0 0.0 0.00 0.00 0.00 91 1008.2
20260507013744 11 0.0 0.0 0.00 0.00 0.00 91 1008.2
20260507012744 12 0.0 0.0 0.00 0.00 0.00 93 1008.2
20260507011744 12 0.0 0.0 0.00 0.00 0.00 95 1008.2
20260507010744 12 0.0 0.0 0.00 0.00 0.00 95 1008.3
20260507005744 12 0.0 0.0 0.00 0.00 0.00 95 1008.1
20260507004744 12 0.0 0.0 0.00 0.00 0.00 94 1008.0
20260507003744 12 0.0 0.0 0.00 0.00 0.00 95 1007.9
20260507002744 12 0.0 0.0 0.00 0.00 0.00 96 1007.9
20260507001744 12 0.0 0.0 0.00 0.00 0.00 96 1007.9
20260507000744 12 0.0 0.0 0.00 0.00 0.00 95 1007.8
20260506235744 13 0.0 0.0 0.00 0.00 0.00 95 1007.9
20260506234747 12 0.0 0.0 0.00 0.00 0.00 95 1007.8
20260506233743 13 0.0 0.0 0.00 0.00 0.00 94 1007.6
20260506232743 13 0.0 0.0 0.00 0.00 0.00 96 1007.3
20260506231743 13 0.0 0.0 0.00 0.00 0.00 96 1007.2
20260506225743 13 0.0 0.0 0.00 0.00 0.00 96 1007.3
20260506224743 13 0.0 0.0 0.00 0.00 0.00 94 1007.4
20260506223743 13 0.0 0.0 0.00 0.00 0.00 92 1007.3
20260506222743 13 0.0 0.0 0.00 0.00 0.00 92 1007.3
20260506221743 13 0.0 0.0 0.00 0.00 0.00 92 1007.1
20260506220743 13 0.0 0.0 0.00 0.00 0.00 92 1006.8
20260506215743 13 0.0 0.0 0.00 0.00 0.00 92 1006.6
20260506214743 13 0.0 0.0 0.00 0.00 0.00 92 1006.8
20260506213743 13 0.0 0.0 0.00 0.00 0.00 92 1006.8
20260506212743 13 0.0 0.0 0.00 0.00 0.00 92 1006.7
20260506211743 13 0.0 0.0 0.00 0.00 0.00 91 1006.7
20260506210743 13 0.0 0.0 0.00 0.00 0.00 91 1006.5
20260506205743 13 0.0 0.0 0.00 0.00 0.00 91 1006.4
20260506204742 13 0.0 0.0 0.00 0.00 0.00 90 1006.4
20260506203743 13 0.0 0.0 0.00 0.00 0.00 91 1006.4
20260506202743 13 0.0 0.0 0.00 0.00 0.00 91 1006.5
20260506201743 13 0.0 0.0 0.00 0.00 0.00 90 1006.4
20260506200743 13 0.0 0.0 0.00 0.00 0.00 90 1006.2
20260506195743 14 0.0 0.0 0.00 0.00 0.00 88 1006.1
20260506194743 14 0.0 0.0 0.00 0.00 0.00 87 1006.1
20260506193743 15 0.0 0.0 0.00 0.00 0.00 85 1005.8